Location: Cedar Brake
(32.2526°N, 97.8459°W)
Time: 08:29:43
(UTC+00:00)

Cosmos 1354 Rocket - Pass Details

Date: 22 April 2026
Orbit: 760 x 779 km, 74.0° (Epoch: 15 May)

Event Time Altitude Azimuth Distance (km) Brightness Sun altitude
Rises 09:11:25 0° 347° (NNW) 3,249 7.6 -31.1°
Reaches altitude 10° 09:13:50 10° 351° (N) 2,316 6.8 -30.7°
Enters shadow 09:18:59 61° 69° (ENE) 870 4.4 -29.9°
